Location: Devore Heights
(34.2372°N, 117.4156°W)
Time: 08:27:37
(UTC+00:00)

A-11 Canister half - Pass Details

Date: 22 September 2024
Orbit: 1515 x 1684 km, 47.2° (Epoch: 07 October)

Event Time Altitude Azimuth Distance (km) Brightness Sun altitude
Rises 21:29:40 0° 187° (S) 4,851 12.1 47.4°
Reaches altitude 10° 21:33:44 10° 173° (S) 3,840 11.6 46.8°
Maximum altitude 21:40:46 23° 126° (SE) 2,911 10.7 45.8°
Drops below altitude 10° 21:47:37 10° 79° (E) 3,752 10.8 44.8°
Sets 21:51:28 0° 66° (ENE) 4,713 11.1 44.2°
